Regional Weather Roundup
Issued by NWS

Home | Current Version | Previous Version | Text Only | Print | Product List | Glossary Off
Versions: 1 2 3 4 5 6 7 8 9 10 11 12 13 14 15 16 17 18 19 20 21 22 23 24 25 26 27 28 29 30 31 32 33 34 35 36 37 38 39 40 41 42 43 44 45 46 47 48 49 50

000
ASUS43 KMKX 260021
RWRWI

WISCONSIN REGIONAL WEATHER ROUNDUP
NATIONAL WEATHER SERVICE MILWAUKEE/SULLIVAN WI
700 PM CDT WED MAY 25 2016

NOTE: "FAIR" INDICATES FEW OR NO CLOUDS BELOW 12,000 FEET WITH NO
SIGNIFICANT WEATHER AND/OR OBSTRUCTIONS TO VISIBILITY.

WIZ001-002-006>008-014>016-023>028-260100-
NORTHWEST WISCONSIN

CITY           SKY/WX    TMP DP  RH WIND       PRES   REMARKS
SUPERIOR ARPT  CLOUDY    44  44  99 NE15G24   29.93F
6HR MIN TEMP:  43; 6HR MAX TEMP:  46; 6HR PCP:  0.31;

ASHLAND        HVY RAIN  50  50 100 N7        29.94F FOG
6HR MIN TEMP:  49; 6HR MAX TEMP:  58; 6HR PCP:  0.12;

HAYWARD        RAIN      52  51  97 NE16      29.89F FOG
6HR MIN TEMP:  53; 6HR MAX TEMP:  78; 6HR PCP:  1.47;

SIREN          CLOUDY    60  58  90 E7        29.85F
6HR MIN TEMP:  60; 6HR MAX TEMP:  64; 6HR PCP:  0.11;

CUMBERLAND     DRIZZLE   63  61  94 NE7       29.85S
RICE LAKE      CLOUDY    63  61  92 N7        29.86S
6HR MIN TEMP:  63; 6HR MAX TEMP:  76; 6HR PCP:  1.89;

CHETEK         RAIN      64  63  99 CALM      29.84S
LADYSMITH      HVY RAIN  66  64  96 NE6       29.85F
6HR MIN TEMP:  65; 6HR MAX TEMP:  80; 6HR PCP:  0.76;

EAU CLAIRE     CLOUDY    67  65  93 CALM      29.81S
6HR MIN TEMP:  64; 6HR MAX TEMP:  79; 6HR PCP:  1.27;

MENOMONIE      PTSUNNY   69  68  97 CALM      29.82S
6HR MIN TEMP:  68; 6HR MAX TEMP:  73; 6HR PCP:  0.26;

NEW RICHMOND   PTSUNNY   71  61  69 CALM      29.82S
6HR MIN TEMP:  65; 6HR MAX TEMP:  72; 6HR PCP:  0.01;

OSCEOLA        CLOUDY    71  64  80 NE8       29.84S
6HR MIN TEMP:  64; 6HR MAX TEMP:  74; 6HR PCP:  0.58;

$$

WIZ003>005-009-010-017-018-260100-
NORTH CENTRAL WISCONSIN

CITY           SKY/WX    TMP DP  RH WIND       PRES   REMARKS
MANITOWISH WTR NOT AVBL
ARBOR VITAE    RAIN      63  61  92 NE3       29.90S
6HR MIN TEMP:  63; 6HR MAX TEMP:  79; 6HR PCP:  0.13;

WOODRUFF       RAIN      63  61  92 NE3       29.90S
6HR MIN TEMP:  63; 6HR MAX TEMP:  79; 6HR PCP:  0.13;

RHINELANDER    HVY RAIN  63  60  90 SE12      29.90S FOG
6HR MIN TEMP:  65; 6HR MAX TEMP:  79; 6HR PCP:  0.13;

EAGLE RIVER    LGT RAIN  65  58  78 E8        29.89F
LAND O LAKES   LGT RAIN  64  60  90 E7        29.91F
6HR MIN TEMP:  64; 6HR MAX TEMP:  76; 6HR PCP:  0.09;

PHILLIPS       HVY RAIN  64  64 100 E6        29.86F
6HR MIN TEMP:  64; 6HR MAX TEMP:  78; 6HR PCP:  0.42;

TOMAHAWK       RAIN      62  60  92 E5        29.88R
6HR MIN TEMP:  62; 6HR MAX TEMP:  77;

MEDFORD        TSTM      62  62 100 SE3       29.85F
6HR MIN TEMP:  62; 6HR MAX TEMP:  76; 6HR PCP:  0.97;

MERRILL        HVY RAIN  63  63  98 SE8G16    29.87R
$$

WIZ029-030-035-036-043>047-260100-
CENTRAL WISCONSIN

CITY           SKY/WX    TMP DP  RH WIND       PRES   REMARKS
WAUSAU         LGT RAIN  65  32  29 SE10G21   29.85S
6HR MIN TEMP:  65; 6HR MAX TEMP:  79; 6HR PCP:  0.36;

MOSINEE        CLOUDY    63  63 100 E12G17    29.86F
MARSHFIELD     CLOUDY    66  62  87 SE13      29.84S
6HR MIN TEMP:  66; 6HR MAX TEMP:  77; 6HR PCP:  0.24;

STEVENS POINT  CLOUDY    63  61  93 SE14G26   29.86S
WAUPACA        LGT RAIN  65  64  97 E15       29.88F
6HR MIN TEMP:  66; 6HR MAX TEMP:  80; 6HR PCP:  0.09;

WAUTOMA        LGT RAIN  63  62  97 E13       29.87F
6HR MIN TEMP:  63; 6HR MAX TEMP:  78;

WISC RAPIDS    RAIN      66  62  87 VRB6      29.88R FOG
6HR MIN TEMP:  66; 6HR MAX TEMP:  81; 6HR PCP:  0.35;

CAMP DOUGLAS   CLOUDY    67  67 100 E6        29.85R
6HR MIN TEMP:  66; 6HR MAX TEMP:  83; 6HR PCP:  0.26;

$$

WIZ011>013-019>022-031-037>040-048>050-260100-
NORTHEAST WISCONSIN

CITY           SKY/WX    TMP DP  RH WIND       PRES   REMARKS
ANTIGO         CLOUDY    61  60  97 E21G30    29.87F
6HR MIN TEMP:  61; 6HR MAX TEMP:  76; 6HR PCP:  0.35;

SHAWANO        LGT RAIN  63  59  87 E10       29.94S
6HR MIN TEMP:  64; 6HR MAX TEMP:  77; 6HR PCP:  0.17;

OCONTO         CLOUDY    58  58 100 E6        29.94F
6HR MIN TEMP:  58; 6HR MAX TEMP:  69;

STURGEON BAY   NOT AVBL
GREEN BAY      CLOUDY    62  58  86 NE14      29.91F
6HR MIN TEMP:  62; 6HR MAX TEMP:  71;

MANITOWOC      LGT RAIN  55  52  89 NE8       29.91F
6HR MIN TEMP:  55; 6HR MAX TEMP:  63; 6HR PCP: TRACE;

APPLETON       TSTM      63  61  94 NW6       29.91F
CLINTONVILLE   RAIN      61  59  94 N3        29.94R
OSHKOSH        LGT RAIN  63  58  83 NE9       29.90R
6HR MIN TEMP:  63; 6HR MAX TEMP:  76; 6HR PCP:  0.14;

$$

WIZ032>034-041-042-053>061-260100-
SOUTHWEST WISCONSIN

CITY           SKY/WX    TMP DP  RH WIND       PRES   REMARKS
LA CROSSE      MOSUNNY   77  63  61 SW10      29.80S
6HR MIN TEMP:  71; 6HR MAX TEMP:  80; 6HR PCP:  0.09;

SPARTA         PTSUNNY   76  67  73 CALM      29.83S
6HR MIN TEMP:  70; 6HR MAX TEMP:  82; 6HR PCP:  0.06;

VIROQUA        MOSUNNY   77  62  58 SW12      29.84S
6HR MIN TEMP:  70; 6HR MAX TEMP:  80; 6HR PCP:  0.06;

BOSCOBEL       MOSUNNY   82  61  48 SW12G20   29.81S HX  83
6HR MIN TEMP:  77; 6HR MAX TEMP:  87; 6HR PCP:  0.02;

PRAIRIE DU CHI PTSUNNY   81  58  46 SW5       29.81S HX  81
6HR MIN TEMP:  76; 6HR MAX TEMP:  83;

PLATTEVILLE    PTSUNNY   81  60  48 SW13      29.84S HX  81
6HR MIN TEMP:  81; 6HR MAX TEMP:  85;

$$

WIZ056-057-062-063-064-067-068-260100-
SOUTH CENTRAL WISCONSIN

CITY           SKY/WX    TMP DP  RH WIND       PRES   REMARKS
REEDSBURG      CLOUDY    71  64  77 CALM      29.82R
6HR MIN TEMP:  71; 6HR MAX TEMP:  84; 6HR PCP:  0.06;

BARABOO/DELLS  CLOUDY    74  63  68 W6        29.83R
6HR MIN TEMP:  74; 6HR MAX TEMP:  83;

LONE ROCK      CLOUDY    82  62  50 SW12G20   29.81F HX  83
6HR MIN TEMP:  78; 6HR MAX TEMP:  88; 6HR PCP: TRACE;

MINERAL POINT  CLOUDY    81  59  47 SW17G23   29.84F HX  81
MADISON        CLOUDY    75  66  73 SE12      29.82F
6HR MIN TEMP:  73; 6HR MAX TEMP:  85; 6HR PCP:  0.06;

MIDDLETON      CLOUDY    82  60  47 SW12      29.83S HX  82
6HR MIN TEMP:  74; 6HR MAX TEMP:  86; 6HR PCP:  0.09;

WATERTOWN      RAIN      68  68 100 E9        29.86S
6HR MIN TEMP:  68; 6HR MAX TEMP:  85; 6HR PCP:  0.10;

MONROE         MOSUNNY   77  64  65 SE12      29.86R
JANESVILLE     TSTM      73  64  73 S18G25    29.89R
$$

WIZ051-052-058>065-066-070>072-260100-
SOUTHEAST WISCONSIN

CITY           SKY/WX    TMP DP  RH WIND       PRES   REMARKS
MILWAUKEE      LGT RAIN  54  52  93 NE8       29.90S FOG
6HR MIN TEMP:  53; 6HR MAX TEMP:  61; 6HR PCP: TRACE;

WAUKESHA       MOSUNNY   64  61  88 E8        29.90S
MILWAUKEE/TIMM MOSUNNY   57  54  88 N5        29.92S
RACINE         CLOUDY    62  59  90 S7        29.90F
6HR MIN TEMP:  57; 6HR MAX TEMP:  67; 6HR PCP:  0.12;

BURLINGTON     CLOUDY    70  64  81 S3        29.88S
6HR MIN TEMP:  70; 6HR MAX TEMP:  85; 6HR PCP:  0.03;

KENOSHA        CLOUDY    66  63  90 SE10      29.90R
6HR MIN TEMP:  66; 6HR MAX TEMP:  76; 6HR PCP:  0.09;

FOND DU LAC    PTSUNNY   66  61  84 SE12      29.87F
6HR MIN TEMP:  66; 6HR MAX TEMP:  81; 6HR PCP:  0.03;

SHEBOYGAN      RAIN      53  51  93 VRB5      29.92F FOG
6HR MIN TEMP:  53; 6HR MAX TEMP:  64; 6HR PCP:  0.03;

WEST BEND      CLOUDY    61  59  94 E8        29.90F
JUNEAU         CLOUDY    69  64  82 SE10      29.88S
6HR MIN TEMP:  69; 6HR MAX TEMP:  82; 6HR PCP:  0.18;

$$

LSZ147-162-260100-
LAKE SUPERIOR

STATION/POSITION TIME  TEMP    WIND        PRES    WAVE
                       AIR SEA DIR/SP/G            HT/PER
                 (UTC) (F)     (DEG/KT/KT) (MB)    (FT/S)
W MID LAKE BUOY  2350   41 38   50/ 16/ 19 1014.1F   3/ 5
DEVILS ISLAND    0000   43     300/  6/  9 1015.2R
PORT WING        2215   41      10/ 25/ 37 1015.2
SAXON HARBOR     2300   47     220/  5/ 11 1012.9R
$$

LMZ867-665-643>646-260100-
LAKE MICHIGAN

STATION/POSITION TIME  TEMP    WIND        PRES    WAVE
                       AIR SEA DIR/SP/G            HT/PER
                 (UTC) (F)     (DEG/KT/KT) (MB)    (FT/S)
CHAMBERS ISLAND  2300   59      60/  5/  9 1014.9S
N MID LAKE BUOY  2350   49 45   70/  6/  6 1014.4S   1
NORTHPORT PIER   2300   57      90/  7/ 10 1014.9S
SISTER BAY       2220   63      70/ 11/ 22   N/A
ALGOMA LAKESHORE 2317           20/ 15/ 21   N/A
KEWAUNEE LAKESC1F1C2F2C3F3C4F4C5F5C6F6C7F7C8M1C9M2Ca!



USA.gov is the U.S. government's official web portal to all federal, state and local government web resources and services.